Location: Newark
(51.5306°N, 0.2243°W)
Time: 19:51:38
(UTC+00:00)

Envisat - Pass Details

Date: 30 September 2019
Orbit: 764 x 766 km, 98.1° (Epoch: 22 October)

Event Time Altitude Azimuth Distance (km) Brightness Sun altitude
Rises 18:13:00 0° 173° (S) 3,222 6.1 -5.7°
Reaches altitude 10° 18:15:19 10° 176° (S) 2,300 5.4 -6.1°
Maximum altitude 18:20:21 64° 258° (WSW) 852 3.6 -6.8°
Drops below altitude 10° 18:25:25 10° 340° (NNW) 2,316 5.8 -7.6°
Sets 18:27:46 0° 344° (NNW) 3,246 6.5 -8.0°
